Погода в Пустоши

Россия / Ивановская область     56°50′54″N   41°37′24″E
темп.,
°C
ветер,
м/с
пор.,
м/с
влажн.,
%
обл.,
%
осадки,
мм/ч
давл.,
гПа
погр.,
м
15 мая, сб
сб1500:00+14юв2697100 1.9 1015171
03:00+14вюв2998100 3.6 1013189
06:00+16ююз2797100 0.8 1012178
09:00+20вюв3682100 1.1 1011390
12:00+23ю5879100 4.8 10111083
15:00+19ю91580100 8.3 10111144
18:00+19ю5117728 0.2 1010891
21:00+16ю412959 1.1 1011379
16 мая, вс
вс1600:00+14ю311975 0.0 1011297
03:00+13ю310974 0.0 1012223
06:00+14ююз411931 0.0 1012382
09:00+18ююз59715 0.0 1013793
12:00+22ююз69535 0.0 10131782
15:00+23юз5104588 0.0 10122739
18:00+20зюз48622 0.0 10131110
21:00+15ююз37880 0.0 1014143
17 мая, пн
пн1700:00+13юз24950 0.0 101575
03:00+12юз22969 0.0 101632
06:00+14ююз128622 0.0 101790
09:00+20ю236235 0.0 1017587
12:00+24ю234829 0.0 10161342
15:00+26юв344548 0.0 10151490
18:00+24в25635 0.0 1014249
21:00+18вюв39865 0.0 1014169
18 мая, вт
вт1800:00+15юв36885 0.0 1014103
03:00+14юв37902 0.0 1014111
06:00+16вюв310794 0.0 1013235
09:00+23юв511495 0.0 1012508
12:00+28юв610355 0.0 10121337
15:00+28юв5103515 0.0 10112818
18:00+25юв511465 0.0 1010712
21:00+20юв4156565 0.0 1010504
19 мая, ср
ср1900:00+18юв41375100 0.0 1009301
03:00+16юв3984100 0.0 1009195
06:00+17юв31174100 0.0 1008368
09:00+21ю5756100 0.0 1008758
12:00+24юв3953100 0.0 10071239
15:00+22ююв61364100 0.3 10072289
18:00+17ююз81488100 1.7 10071047
21:00+14ююв3139499 1.7 1007508